Torna al catalogo

STARLINK-35528

AttivoComunicazioniVLEO
NORAD 66094·PAYLOAD·🇺🇸 United States

Lanciato Oct 19, 2025 da Vandenberg Space Force Base

Loading…

Prossimi Passaggi (prossime 24 ore)

TLE

AggiornatoSource: CelesTrak SupGP

Epoca: Sep 14, 2026, 21:14 UTC

1 66094C 25236J   26257.88520833  .00009485  00000+0  28030-3 0  2570
2 66094  53.1589 303.8860 0001178  75.4654  85.7972 15.34379212    10

Traccia STARLINK-35528 in tempo reale con AllMySat

Download on the App Store